Flag for Uruguay Weather past 2 weeks in Melo, Uruguay

Now
63 °F

Sunny.


Feels Like: 63 °F
Forecast: 43 / 66 °F
Wind: 9 mph from South

Location: Pelotas Airport

Current Time: Oct 2, 2014 at 12:00:44 PM

Latest Report: Oct 2, 2014 at 11:00 AM


Visibility: 10 mi

Pressure: 30.42 "Hg

Humidity: 56%

Dew point: 46 °F

Location of MeloLocation

Historic Weather in Melo — Graph

°F

Melo temperature yesterday

Maximum temperature yesterday: 70 °F (at 1:00 PM)
Minimum temperature yesterday: 57 °F (at 10:00 PM)
Average temperature yesterday: 63 °F

Past Weeks' High & Low Weather Summary

 TemperatureHumidityPressure
High84 °F (Sep 23, 3:00 PM)100% (Sep 19, 1:00 AM)30.42 "Hg (Sep 19, 1:00 AM)
Low45 °F (Sep 22, 4:00 AM)35% (Sep 24, 6:00 PM)29.68 "Hg (Sep 26, 12:00 AM)
Average62 °F84%29.99 "Hg
* Reported Sep 17 11:00 AM — Oct 2 11:00 AM, Melo, Weather by CustomWeather, © 2014

Note: Actual official high and low records may vary slightly from our data, if they occured in-between our weather recording intervals... More about our weather records

Advertising

Melo weather history for previous 24 hours

 ConditionsComfort  
Time TempWeatherWind HumidityBarometerVisibility
11:00 AM
Oct 2
63 °FSunny.9 mph56%30.42 "Hg10 mi
10:00 AM61 °FSunny.5 mph48%30.42 "Hg10 mi
9:00 AM57 °FSunny.7 mph67%30.42 "Hg10 mi
8:00 AM54 °FSunny.7 mph88%30.39 "Hg10 mi
7:00 AM50 °FSunny.6 mph94%30.36 "Hg10 mi
6:00 AM48 °FSunny.5 mph94%30.33 "Hg10 mi
5:00 AM48 °FClear.3 mph100%30.33 "Hg10 mi
4:00 AM50 °FClear.5 mph94%30.30 "Hg10 mi
3:00 AM50 °FClear.6 mph94%30.30 "Hg10 mi
2:00 AM52 °FClear.6 mph94%30.30 "Hg10 mi
1:00 AM52 °FPassing clouds.7 mph94%30.30 "HgN/A
12:00 AM55 °FPassing clouds.12 mph82%30.30 "HgN/A
11:00 PM
Oct 1
57 °FPassing clouds.9 mph82%30.30 "HgN/A
10:00 PM57 °FPassing clouds.13 mph77%30.30 "HgN/A
9:00 PM59 °FPassing clouds.14 mph77%30.27 "HgN/A
8:00 PM59 °FPassing clouds.13 mph82%30.27 "HgN/A
7:00 PM61 °FPassing clouds.10 mph83%30.24 "HgN/A
6:00 PM64 °FPassing clouds.14 mph60%30.18 "HgN/A
5:00 PM66 °FPartly sunny.16 mph64%30.18 "HgN/A
4:00 PM66 °FPartly sunny.15 mph68%30.15 "HgN/A
3:00 PM70 °FPartly sunny.18 mph57%30.15 "HgN/A
2:00 PM70 °FPartly sunny.13 mph60%30.12 "HgN/A
1:00 PM70 °FPartly sunny.9 mph57%30.12 "HgN/A
12:00 PM68 °FScattered clouds.12 mph60%30.12 "HgN/A
Weather by CustomWeather, © 2014

See weather overviewHow to use our weather pages